User: anonymous   Login
Location: Unspecified
(0.0000°N, 0.0000°E)
Time: 12:48:18
(UTC+00:00)
Language:

UNK - Orbit

View from above orbital plane
View from above orbital plane
View from above satellite
View from above satellite

Ground track
Ground track

The orbit data is extracted from the following two-line orbital elements,

1 28479U 04046A   18201.15528032  .00000063  00000-0  22564-4 0  9994
2 28479  98.1921 219.6937 0009593 333.0269  27.0432 14.60832072727626
Epoch (UTC): 20 July 2018 03:43:36
Eccentricity: 0.0009593
inclination: 98.1921°
perigee height: 684 km
apogee height: 697 km
right ascension of ascending node: 219.6937°
argument of perigee: 333.0269°
revolutions per day: 14.60832072
mean anomaly at epoch: 27.0432°
orbit number at epoch: 72762

The dashed part of the orbit path shows where the satellite is in the earth's shadow,  

DLR